Weather History for Jordan, MT

Change the Weather History Date:

Sunday, September 25, 2011

  Actual Average Record
Temperature  
Mean Temperature 68 °F 53 °F  
Max Temperature 93 °F 68 °F 93 °F (1943)
Min Temperature 42 °F 37 °F 21 °F (1934)
Degree Days  
Heating Degree Days 0 12  
Month to date heating degree days 139 194  
Since 1 July heating degree days 147 259  
Cooling Degree Days 3 0  
Month to date cooling degree days 23 24  
Year to date cooling degree days 479 417  
Growing Degree Days 17 (Base 50)    
Moisture  
Dew Point 28 °F    
Average Humidity 35    
Maximum Humidity 62    
Minimum Humidity 8    
Precipitation  
Precipitation 0.00 in 0.05 in 1.83 in (1986)
Month to date precipitation 0.10 1.01  
Year to date precipitation 14.70 10.93  
Snow  
Snow 0.00 in - - ()
Month to date snowfall 0.0  
Since 1 July snowfall 0.0  
Since 1 September snowfall 0.0  
Snow Depth 0.00 in    
Sea Level Pressure  
Sea Level Pressure 29.74 in    
Wind  
Wind Speed 5 mph (SSW)    
Max Wind Speed 16 mph    
Max Gust Speed 20 mph    
T = Trace of Precipitation, MM = Missing Value Source: NWS Daily Summary

Daily Weather History Graph

Daily Weather History Graph

Search for Another Location

Airport:

Trip Planner

Search our weather history database for the weather conditions in past years. The results will help you decide how hot, cold, wet, or windy it might be!

Date:

Astronomy

Sep. 25, 2011 Rise Set
Actual Time 6:58 AM MDT 6:59 PM MDT
Civil Twilight 6:27 AM MDT 7:30 PM MDT
Nautical Twilight 5:51 AM MDT 8:06 PM MDT
Astronomical Twilight 5:15 AM MDT 8:42 PM MDT
Moon 4:42 AM MDT (9/25) 5:45 PM MDT (9/25)
Length of Visible Light 13h 02m
Length of Day
12h 01m
Waning Crescent, 4% of the Moon is Illuminated
Sep 25
Waning Crescent
Sep 27
New
Oct 3
First Quarter
Oct 11
Full
Oct 19
Last Quarter

Hourly Weather History & Observations

Time (MDT) Temp. Windchill Dew Point Humidity Pressure Visibility Wind Dir Wind Speed Gust Speed Precip Events Conditions
12:48 AM 48.9 °F - 30.0 °F 48% 29.84 in - WNW 6.9 mph - N/A   Unknown
1:48 AM 48.0 °F - 28.9 °F 48% 29.84 in - West 4.6 mph - N/A   Unknown
2:48 AM 46.9 °F - 30.0 °F 52% 29.82 in - Calm Calm - N/A   Unknown
3:48 AM 45.0 °F 43.5 °F 30.0 °F 56% 29.82 in - West 3.5 mph - N/A   Unknown
4:48 AM 45.0 °F 43.5 °F 28.9 °F 53% 29.82 in - WNW 3.5 mph - N/A   Unknown
5:48 AM 43.0 °F 41.3 °F 30.9 °F 62% 29.82 in - West 3.5 mph - N/A   Unknown
6:48 AM 44.1 °F 42.5 °F 28.9 °F 55% 29.83 in - West 3.5 mph - N/A   Unknown
7:48 AM 46.0 °F 43.9 °F 30.0 °F 54% 29.85 in - West 4.6 mph - N/A   Unknown
8:48 AM 57.9 °F - 28.9 °F 33% 29.82 in - West 3.5 mph - N/A   Unknown
9:48 AM 70.0 °F - 30.9 °F 24% 29.80 in - Calm Calm - N/A   Unknown
10:48 AM 81.0 °F - 32.0 °F 17% 29.77 in - Calm Calm - N/A   Unknown
11:48 AM 89.1 °F - 27.0 °F 11% 29.73 in - Variable 4.6 mph - N/A   Unknown
12:48 PM 91.0 °F - 25.0 °F 9% 29.71 in - SSE 11.5 mph 16.1 mph N/A   Unknown
1:48 PM 91.9 °F - 24.1 °F 9% 29.69 in - SE 10.4 mph 18.4 mph N/A   Unknown
2:48 PM 91.9 °F - 21.0 °F 8% 29.67 in - SSE 11.5 mph - N/A   Unknown
3:48 PM 91.9 °F - 21.0 °F 8% 29.66 in - SSE 13.8 mph - N/A   Unknown
4:48 PM 91.0 °F - 26.1 °F 10% 29.66 in - SSE 15.0 mph - N/A   Unknown
5:48 PM 89.1 °F - 30.0 °F 12% 29.65 in - SSE 9.2 mph - N/A   Unknown
6:48 PM 82.0 °F - 33.1 °F 17% 29.66 in - SE 4.6 mph - N/A   Unknown
7:48 PM 72.0 °F - 30.9 °F 22% 29.68 in - Calm Calm - N/A   Unknown
8:48 PM 73.0 °F - 26.1 °F 17% 29.66 in - East 5.8 mph - N/A   Unknown
9:48 PM 69.1 °F - 25.0 °F 19% 29.65 in - East 5.8 mph - N/A   Unknown
10:48 PM 62.1 °F - 26.1 °F 25% 29.64 in - Calm Calm - N/A   Unknown
11:48 PM 54.0 °F - 30.0 °F 40% 29.64 in - Calm Calm - N/A   Unknown